Location: Asheville, NC
(35.6000°N, 82.5500°W)
Time: 18:32:32
(UTC-04:00)

Vanguard 1 - Pass Details

Date: 13 February 2018
Orbit: 650 x 3833 km, 34.3° (Epoch: 21 May)

Event Time Altitude Azimuth Distance (km) Brightness Sun altitude
Rises 20:59:47 0° 276° (W) 3,237 13.8 -35.0°
Reaches altitude 10° 21:02:22 10° 272° (W) 2,150 12.6 -35.5°
Enters shadow 21:04:06 22° 266° (W) 1,457 11.5 -35.8°
Maximum altitude 21:06:52 57° 194° (SSW) 758 - -36.4°
Drops below altitude 10° 21:11:25 10° 115° (ESE) 2,169 - -37.3°
Sets 21:14:03 0° 111° (ESE) 3,270 - -37.8°
